| time (UTC) | temp F | wind direction | speed knots | gust knots | rain 1hr in | rain 24hr in | rain mn in | humidity % | barometer mb |
| 20260508142544 | 47 | 281 | 7.0 | 13.9 | 0.00 | 0.13 | 0.00 | 82 | 1006.0 |
| 20260508142048 | 47 | 224 | 6.1 | 11.3 | 0.00 | 0.13 | 0.00 | 82 | 1006.0 |
| 20260508141547 | 47 | 304 | 5.2 | 13.0 | 0.00 | 0.13 | 0.00 | 83 | 1006.0 |
| 20260508141044 | 47 | 248 | 6.1 | 13.0 | 0.00 | 0.13 | 0.00 | 83 | 1006.2 |
| 20260508140545 | 47 | 281 | 6.1 | 12.2 | 0.00 | 0.13 | 0.00 | 82 | 1006.1 |
| 20260508140048 | 47 | 232 | 5.2 | 12.2 | 0.00 | 0.13 | 0.00 | 82 | 1006.1 |
| 20260508135544 | 47 | 281 | 4.3 | 11.3 | 0.00 | 0.23 | 0.00 | 82 | 1006.1 |
| 20260508135045 | 47 | 263 | 5.2 | 12.2 | 0.00 | 0.23 | 0.00 | 81 | 1006.1 |
| 20260508134550 | 47 | 306 | 4.3 | 12.2 | 0.00 | 0.23 | 0.00 | 81 | 1006.1 |
| 20260508134041 | 47 | 279 | 4.3 | 12.2 | 0.00 | 0.23 | 0.00 | 82 | 1006.2 |
| 20260508133545 | 47 | 262 | 5.2 | 12.2 | 0.00 | 0.23 | 0.00 | 82 | 1006.1 |
| 20260508133052 | 47 | 235 | 5.2 | 11.3 | 0.00 | 0.23 | 0.00 | 82 | 1006.2 |
| 20260508132541 | 47 | 254 | 5.2 | 13.9 | 0.00 | 0.23 | 0.00 | 81 | 1006.1 |
| 20260508132041 | 47 | 289 | 6.1 | 13.9 | 0.00 | 0.23 | 0.00 | 81 | 1005.9 |
| 20260508131555 | 47 | 316 | 5.2 | 11.3 | 0.00 | 0.23 | 0.00 | 82 | 1005.8 |
| 20260508131045 | 47 | 281 | 6.1 | 11.3 | 0.00 | 0.23 | 0.00 | 82 | 1005.8 |
| 20260508130544 | 47 | 310 | 5.2 | 11.3 | 0.00 | 0.23 | 0.00 | 83 | 1005.8 |
| 20260508130105 | 47 | 283 | 4.3 | 10.4 | 0.00 | 0.23 | 0.00 | 83 | 1005.7 |
| 20260508125545 | 47 | 270 | 5.2 | 13.0 | 0.00 | 0.50 | 0.00 | 82 | 1005.6 |
| 20260508125048 | 47 | 253 | 5.2 | 13.0 | 0.00 | 0.50 | 0.00 | 83 | 1005.6 |
| 20260508124549 | 47 | 271 | 5.2 | 10.4 | 0.00 | 0.50 | 0.00 | 82 | 1005.6 |
| 20260508124048 | 47 | 252 | 3.5 | 10.4 | 0.00 | 0.50 | 0.00 | 83 | 1005.4 |
| 20260508123542 | 47 | 317 | 5.2 | 10.4 | 0.00 | 0.50 | 0.00 | 82 | 1005.5 |
| 20260508123052 | 47 | 308 | 5.2 | 9.6 | 0.00 | 0.50 | 0.00 | 82 | 1005.5 |
| 20260508122541 | 47 | 273 | 3.5 | 12.2 | 0.00 | 0.50 | 0.00 | 82 | 1005.5 |
| 20260508122044 | 47 | 269 | 3.5 | 12.2 | 0.00 | 0.50 | 0.00 | 82 | 1005.4 |
| 20260508121550 | 47 | 265 | 3.5 | 13.9 | 0.00 | 0.50 | 0.00 | 82 | 1005.5 |
| 20260508121046 | 47 | 225 | 6.1 | 13.9 | 0.00 | 0.50 | 0.00 | 81 | 1005.4 |
| 20260508120545 | 47 | 317 | 5.2 | 10.4 | 0.00 | 0.50 | 0.00 | 81 | 1005.3 |
| 20260508120054 | 47 | 294 | 4.3 | 8.7 | 0.00 | 0.50 | 0.00 | 82 | 1005.2 |
| 20260508115545 | 47 | 277 | 3.5 | 8.7 | 0.00 | 0.56 | 0.00 | 83 | 1005.2 |
| 20260508115044 | 46 | 273 | 3.5 | 8.7 | 0.00 | 0.56 | 0.00 | 83 | 1005.1 |
| 20260508114552 | 46 | 327 | 3.5 | 8.7 | 0.00 | 0.56 | 0.00 | 83 | 1005.2 |
| 20260508114045 | 46 | 291 | 3.5 | 8.7 | 0.00 | 0.56 | 0.00 | 83 | 1005.2 |
| 20260508113545 | 46 | 275 | 2.6 | 7.0 | 0.00 | 0.56 | 0.00 | 83 | 1005.2 |
| 20260508113053 | 46 | 288 | 2.6 | 7.0 | 0.00 | 0.56 | 0.00 | 84 | 1005.3 |
| 20260508112545 | 46 | 300 | 3.5 | 7.0 | 0.00 | 0.56 | 0.00 | 84 | 1005.3 |
| 20260508112045 | 46 | 308 | 1.7 | 7.0 | 0.00 | 0.56 | 0.00 | 84 | 1005.2 |
| 20260508111551 | 45 | 313 | 2.6 | 7.8 | 0.00 | 0.56 | 0.00 | 84 | 1005.2 |
| 20260508111044 | 45 | 277 | 4.3 | 8.7 | 0.00 | 0.56 | 0.00 | 84 | 1005.1 |
| 20260508110546 | 45 | 285 | 6.1 | 9.6 | 0.00 | 0.56 | 0.00 | 84 | 1005.1 |
| 20260508110105 | 45 | 309 | 5.2 | 9.6 | 0.00 | 0.56 | 0.00 | 85 | 1005.0 |
| 20260508105544 | 45 | 314 | 5.2 | 8.7 | 0.00 | 0.56 | 0.00 | 85 | 1005.0 |
| 20260508105047 | 45 | 301 | 4.3 | 7.8 | 0.00 | 0.56 | 0.00 | 86 | 1004.9 |
| 20260508104550 | 45 | 321 | 3.5 | 6.1 | 0.00 | 0.56 | 0.00 | 86 | 1004.8 |
| 20260508104046 | 45 | 332 | 1.7 | 6.1 | 0.00 | 0.56 | 0.00 | 87 | 1004.7 |
| 20260508103545 | 44 | 321 | 1.7 | 7.0 | 0.00 | 0.56 | 0.00 | 87 | 1004.7 |
| 20260508103050 | 44 | 332 | 2.6 | 8.7 | 0.00 | 0.56 | 0.00 | 87 | 1004.8 |
| 20260508102541 | 44 | 319 | 2.6 | 8.7 | 0.00 | 0.56 | 0.00 | 87 | 1004.8 |
| 20260508102045 | 44 | 316 | 3.5 | 8.7 | 0.00 | 0.56 | 0.00 | 87 | 1004.8 |
| 20260508101553 | 43 | 319 | 3.5 | 9.6 | 0.00 | 0.56 | 0.00 | 87 | 1004.7 |
| 20260508101045 | 43 | 295 | 5.2 | 9.6 | 0.00 | 0.56 | 0.00 | 87 | 1004.7 |
| 20260508100546 | 43 | 289 | 5.2 | 9.6 | 0.00 | 0.56 | 0.00 | 88 | 1004.6 |
| 20260508100051 | 43 | 315 | 6.1 | 9.6 | 0.00 | 0.56 | 0.00 | 88 | 1004.4 |
| 20260508095548 | 43 | 298 | 6.1 | 9.6 | 0.00 | 0.56 | 0.00 | 89 | 1004.3 |
| 20260508095045 | 43 | 301 | 5.2 | 9.6 | 0.00 | 0.56 | 0.00 | 89 | 1004.3 |
| 20260508094556 | 42 | 290 | 6.1 | 9.6 | 0.00 | 0.56 | 0.00 | 90 | 1004.2 |
| 20260508094044 | 42 | 300 | 6.1 | 11.3 | 0.00 | 0.56 | 0.00 | 91 | 1004.2 |
| 20260508093547 | 42 | 302 | 6.1 | 11.3 | 0.00 | 0.56 | 0.00 | 91 | 1004.1 |
| 20260508093101 | 42 | 296 | 6.1 | 9.6 | 0.00 | 0.56 | 0.00 | 92 | 1004.2 |
| 20260508092544 | 41 | 303 | 4.3 | 7.8 | 0.00 | 0.56 | 0.00 | 93 | 1004.2 |
| 20260508092045 | 41 | 302 | 1.7 | 7.0 | 0.00 | 0.56 | 0.00 | 92 | 1004.0 |
| 20260508091551 | 41 | 315 | 2.6 | 7.0 | 0.00 | 0.56 | 0.00 | 92 | 1003.9 |
| 20260508091045 | 41 | 330 | 2.6 | 7.0 | 0.00 | 0.56 | 0.00 | 92 | 1003.9 |
| 20260508090543 | 41 | 326 | 2.6 | 4.3 | 0.00 | 0.56 | 0.00 | 92 | 1003.9 |
| 20260508090106 | 41 | 325 | 2.6 | 5.2 | 0.00 | 0.56 | 0.00 | 93 | 1003.9 |
| 20260508085546 | 42 | 327 | 2.6 | 5.2 | 0.00 | 0.56 | 0.00 | 92 | 1003.8 |
| 20260508085043 | 42 | 331 | 2.6 | 4.3 | 0.00 | 0.56 | 0.00 | 92 | 1003.7 |
| 20260508084552 | 42 | 331 | 2.6 | 7.0 | 0.00 | 0.56 | 0.00 | 92 | 1003.7 |
| 20260508084044 | 42 | 333 | 1.7 | 10.4 | 0.00 | 0.56 | 0.00 | 93 | 1003.7 |
| 20260508083545 | 42 | 315 | 5.2 | 10.4 | 0.00 | 0.56 | 0.00 | 93 | 1003.7 |
| 20260508083053 | 42 | 315 | 5.2 | 10.4 | 0.00 | 0.56 | 0.00 | 93 | 1003.8 |
| 20260508082544 | 43 | 303 | 6.1 | 8.7 | 0.00 | 0.56 | 0.00 | 94 | 1003.7 |
| 20260508082044 | 43 | 304 | 5.2 | 8.7 | 0.00 | 0.56 | 0.00 | 94 | 1003.8 |
| 20260508081558 | 43 | 309 | 6.1 | 8.7 | 0.00 | 0.56 | 0.00 | 94 | 1003.8 |
| 20260508081042 | 43 | 306 | 6.1 | 9.6 | 0.00 | 0.56 | 0.00 | 94 | 1003.8 |
| 20260508080545 | 43 | 296 | 5.2 | 9.6 | 0.00 | 0.56 | 0.00 | 95 | 1003.8 |
| 20260508080119 | 43 | 305 | 6.1 | 9.6 | 0.00 | 0.56 | 0.00 | 95 | 1003.7 |
| 20260508075545 | 43 | 301 | 5.2 | 7.8 | 0.00 | 0.57 | 0.00 | 95 | 1003.8 |
| 20260508075048 | 43 | 299 | 5.2 | 7.8 | 0.00 | 0.57 | 0.00 | 95 | 1003.8 |
| 20260508074554 | 43 | 299 | 3.5 | 6.1 | 0.00 | 0.57 | 0.00 | 95 | 1003.8 |
| 20260508074045 | 43 | 282 | 3.5 | 6.1 | 0.00 | 0.57 | 0.00 | 95 | 1003.7 |
| 20260508073544 | 43 | 284 | 3.5 | 6.1 | 0.00 | 0.57 | 0.00 | 96 | 1003.8 |
| 20260508073058 | 43 | 338 | 1.7 | 4.3 | 0.00 | 0.57 | 0.00 | 95 | 1003.7 |
| 20260508072543 | 43 | 338 | 0.9 | 3.5 | 0.00 | 0.57 | 0.00 | 95 | 1003.8 |
| 20260508072043 | 43 | 338 | 1.7 | 3.5 | 0.00 | 0.57 | 0.00 | 95 | 1003.8 |
| 20260508071552 | 43 | 338 | 1.7 | 4.3 | 0.00 | 0.57 | 0.00 | 95 | 1003.8 |
| 20260508071045 | 43 | 338 | 1.7 | 4.3 | 0.00 | 0.57 | 0.00 | 95 | 1003.7 |
| 20260508070546 | 43 | 338 | 1.7 | 3.5 | 0.00 | 0.57 | 0.00 | 95 | 1003.7 |
| 20260508070054 | 43 | 338 | 1.7 | 4.3 | 0.00 | 0.57 | 0.00 | 95 | 1003.7 |
| 20260508065548 | 43 | 338 | 2.6 | 4.3 | 0.00 | 0.64 | 0.00 | 95 | 1003.7 |
| 20260508065042 | 43 | 355 | 1.7 | 3.5 | 0.00 | 0.64 | 0.00 | 95 | 1003.8 |
| 20260508064550 | 43 | 360 | 1.7 | 3.5 | 0.00 | 0.64 | 0.00 | 95 | 1003.8 |
| 20260508064043 | 43 | 360 | 1.7 | 4.3 | 0.00 | 0.64 | 0.00 | 96 | 1003.7 |
| 20260508063541 | 43 | 360 | 1.7 | 4.3 | 0.00 | 0.64 | 0.00 | 96 | 1003.7 |
| 20260508063054 | 43 | 360 | 1.7 | 4.3 | 0.00 | 0.64 | 0.00 | 96 | 1003.9 |
| 20260508062542 | 43 | 360 | 2.6 | 4.3 | 0.00 | 0.64 | 0.00 | 96 | 1003.9 |
| 20260508062043 | 43 | 333 | 1.7 | 4.3 | 0.00 | 0.64 | 0.00 | 96 | 1003.9 |
| 20260508061605 | 43 | 333 | 2.6 | 4.3 | 0.00 | 0.64 | 0.00 | 96 | 1003.8 |
| 20260508061044 | 43 | 333 | 2.6 | 3.5 | 0.00 | 0.64 | 0.00 | 96 | 1003.9 |
| 20260508060545 | 43 | 333 | 1.7 | 3.5 | 0.00 | 0.64 | 0.00 | 96 | 1004.0 |
| 20260508060052 | 43 | 333 | 1.7 | 3.5 | 0.00 | 0.64 | 0.00 | 96 | 1004.1 |
| 20260508055545 | 43 | 333 | 1.7 | 3.5 | 0.00 | 0.74 | 0.00 | 96 | 1003.9 |
| 20260508055044 | 43 | 333 | 1.7 | 3.5 | 0.00 | 0.74 | 0.00 | 96 | 1003.9 |
| 20260508054609 | 43 | 333 | 1.7 | 4.3 | 0.00 | 0.74 | 0.00 | 96 | 1003.9 |
| 20260508054043 | 43 | 333 | 1.7 | 7.0 | 0.00 | 0.74 | 0.00 | 96 | 1003.9 |
| 20260508053544 | 43 | 333 | 2.6 | 7.0 | 0.00 | 0.74 | 0.00 | 96 | 1003.7 |
| 20260508053053 | 43 | 348 | 2.6 | 7.0 | 0.00 | 0.74 | 0.00 | 96 | 1003.7 |
| 20260508052550 | 43 | 346 | 2.6 | 9.6 | 0.00 | 0.74 | 0.00 | 96 | 1003.8 |
| 20260508052043 | 43 | 348 | 3.5 | 9.6 | 0.00 | 0.74 | 0.00 | 96 | 1003.6 |
| 20260508051554 | 43 | 333 | 4.3 | 7.8 | 0.00 | 0.74 | 0.00 | 96 | 1003.7 |
| 20260508051043 | 43 | 304 | 3.5 | 7.0 | 0.00 | 0.74 | 0.00 | 96 | 1003.6 |
| 20260508050544 | 44 | 329 | 3.5 | 7.0 | 0.00 | 0.74 | 0.00 | 96 | 1003.6 |
| 20260508050050 | 44 | 309 | 3.5 | 7.0 | 0.00 | 0.74 | 0.00 | 96 | 1003.7 |
| 20260508045547 | 44 | 315 | 2.6 | 7.0 | 0.00 | 0.81 | 0.00 | 96 | 1003.7 |
| 20260508045043 | 44 | 325 | 2.6 | 7.8 | 0.00 | 0.81 | 0.00 | 96 | 1003.8 |
| 20260508044601 | 43 | 303 | 3.5 | 7.8 | 0.00 | 0.81 | 0.00 | 96 | 1003.8 |
| 20260508044042 | 43 | 301 | 4.3 | 7.8 | 0.00 | 0.81 | 0.00 | 96 | 1003.9 |
| 20260508043544 | 43 | 301 | 3.5 | 7.8 | 0.00 | 0.81 | 0.00 | 96 | 1003.9 |
| 20260508043048 | 43 | 286 | 3.5 | 7.8 | 0.00 | 0.81 | 0.00 | 96 | 1004.1 |
| 20260508042545 | 43 | 250 | 1.7 | 5.2 | 0.00 | 0.81 | 0.00 | 95 | 1004.1 |
| 20260508042047 | 43 | 269 | 0.9 | 5.2 | 0.00 | 0.81 | 0.00 | 95 | 1004.2 |
| 20260508041556 | 42 | 271 | 1.7 | 7.8 | 0.00 | 0.81 | 0.00 | 95 | 1004.2 |
| 20260508041045 | 42 | 275 | 1.7 | 7.8 | 0.00 | 0.81 | 0.00 | 95 | 1004.3 |
| 20260508040545 | 42 | 234 | 1.7 | 3.5 | 0.00 | 0.81 | 0.00 | 96 | 1004.2 |
| 20260508040056 | 42 | 232 | 0.0 | 2.6 | 0.00 | 0.81 | 0.00 | 95 | 1004.5 |
| 20260508035544 | 42 | 0 | 0.0 | 4.3 | 0.00 | 0.81 | 0.00 | 95 | 1004.7 |
| 20260508035046 | 42 | 232 | 0.9 | 4.3 | 0.00 | 0.81 | 0.00 | 95 | 1004.6 |
| 20260508034601 | 42 | 232 | 2.6 | 5.2 | 0.00 | 0.81 | 0.00 | 95 | 1004.7 |
| 20260508034045 | 42 | 232 | 3.5 | 6.1 | 0.00 | 0.81 | 0.00 | 95 | 1004.5 |
| 20260508033544 | 42 | 227 | 3.5 | 6.1 | 0.00 | 0.81 | 0.00 | 95 | 1004.5 |
| 20260508033052 | 42 | 229 | 4.3 | 6.1 | 0.00 | 0.81 | 0.00 | 95 | 1004.5 |
| 20260508032546 | 42 | 213 | 3.5 | 5.2 | 0.00 | 0.81 | 0.00 | 95 | 1004.4 |
| 20260508032045 | 41 | 213 | 3.5 | 5.2 | 0.00 | 0.81 | 0.00 | 94 | 1004.4 |
| 20260508031558 | 41 | 201 | 2.6 | 5.2 | 0.00 | 0.81 | 0.00 | 94 | 1004.5 |
| 20260508031044 | 42 | 202 | 3.5 | 5.2 | 0.00 | 0.81 | 0.00 | 94 | 1004.5 |
| 20260508030541 | 42 | 201 | 3.5 | 5.2 | 0.00 | 0.81 | 0.00 | 94 | 1004.3 |
| 20260508030106 | 42 | 201 | 3.5 | 5.2 | 0.00 | 0.81 | 0.00 | 95 | 1004.3 |
| 20260508025544 | 42 | 201 | 2.6 | 4.3 | 0.00 | 0.81 | 0.81 | 95 | 1004.3 |
| 20260508025049 | 42 | 201 | 0.9 | 3.5 | 0.00 | 0.81 | 0.81 | 94 | 1004.3 |
| 20260508024553 | 42 | 201 | 1.7 | 3.5 | 0.00 | 0.81 | 0.81 | 94 | 1004.0 |
| 20260508024045 | 42 | 201 | 0.9 | 3.5 | 0.00 | 0.81 | 0.81 | 94 | 1004.0 |
| 20260508023545 | 42 | 201 | 1.7 | 3.5 | 0.00 | 0.81 | 0.81 | 94 | 1003.9 |
| 20260508023049 | 42 | 201 | 0.9 | 3.5 | 0.00 | 0.81 | 0.81 | 94 | 1003.9 |
| 20260508022545 | 42 | 201 | 0.9 | 3.5 | 0.00 | 0.81 | 0.81 | 93 | 1003.9 |
| 20260508022042 | 42 | 0 | 0.9 | 3.5 | 0.00 | 0.81 | 0.81 | 93 | 1004.1 |
| 20260508021554 | 42 | 201 | 1.7 | 3.5 | 0.00 | 0.81 | 0.81 | 93 | 1004.2 |
| 20260508021048 | 43 | 201 | 1.7 | 4.3 | 0.00 | 0.81 | 0.81 | 93 | 1004.4 |
| 20260508020544 | 43 | 201 | 0.9 | 4.3 | 0.00 | 0.81 | 0.81 | 93 | 1004.5 |
| 20260508020050 | 43 | 203 | 1.7 | 3.5 | 0.00 | 0.81 | 0.81 | 93 | 1004.4 |
| 20260508015544 | 43 | 203 | 2.6 | 3.5 | 0.00 | 0.81 | 0.81 | 93 | 1004.3 |
| 20260508015044 | 43 | 203 | 1.7 | 3.5 | 0.00 | 0.81 | 0.81 | 93 | 1004.4 |
| 20260508014554 | 43 | 203 | 0.9 | 4.3 | 0.00 | 0.81 | 0.81 | 93 | 1004.6 |
| 20260508014046 | 43 | 203 | 2.6 | 4.3 | 0.00 | 0.81 | 0.81 | 93 | 1004.5 |
| 20260508013548 | 43 | 205 | 2.6 | 3.5 | 0.00 | 0.81 | 0.81 | 93 | 1004.5 |
| 20260508013058 | 44 | 196 | 1.7 | 3.5 | 0.00 | 0.81 | 0.81 | 93 | 1004.4 |
| 20260508012544 | 44 | 196 | 1.7 | 2.6 | 0.00 | 0.81 | 0.81 | 93 | 1004.5 |
| 20260508012048 | 44 | 196 | 0.9 | 3.5 | 0.00 | 0.81 | 0.81 | 93 | 1004.5 |
| 20260508011557 | 44 | 196 | 1.7 | 3.5 | 0.00 | 0.81 | 0.81 | 93 | 1004.5 |
| 20260508011047 | 44 | 196 | 0.9 | 3.5 | 0.00 | 0.81 | 0.81 | 93 | 1004.5 |
| 20260508010542 | 44 | 196 | 1.7 | 3.5 | 0.00 | 0.81 | 0.81 | 92 | 1004.5 |
| 20260508010054 | 44 | 196 | 0.9 | 4.3 | 0.00 | 0.81 | 0.81 | 93 | 1004.4 |
| 20260508005544 | 44 | 196 | 0.9 | 4.3 | 0.00 | 0.81 | 0.81 | 92 | 1004.3 |
| 20260508005045 | 44 | 196 | 2.6 | 4.3 | 0.00 | 0.81 | 0.81 | 92 | 1004.3 |
| 20260508004558 | 44 | 196 | 2.6 | 4.3 | 0.00 | 0.81 | 0.81 | 92 | 1004.2 |
| 20260508004046 | 44 | 196 | 1.7 | 4.3 | 0.00 | 0.81 | 0.81 | 92 | 1004.2 |
| 20260508003541 | 44 | 219 | 2.6 | 3.5 | 0.00 | 0.81 | 0.81 | 92 | 1004.1 |
| 20260508003101 | 44 | 219 | 1.7 | 3.5 | 0.00 | 0.81 | 0.81 | 91 | 1004.1 |
| 20260508002545 | 44 | 219 | 0.9 | 3.5 | 0.00 | 0.81 | 0.81 | 91 | 1004.1 |
| 20260508002043 | 44 | 219 | 1.7 | 3.5 | 0.00 | 0.81 | 0.81 | 91 | 1004.1 |
| 20260508001554 | 45 | 219 | 2.6 | 3.5 | 0.00 | 0.81 | 0.81 | 90 | 1004.0 |
| 20260508001041 | 45 | 219 | 1.7 | 3.5 | 0.00 | 0.81 | 0.81 | 90 | 1003.9 |
| 20260508000545 | 45 | 219 | 1.7 | 3.5 | 0.00 | 0.81 | 0.81 | 90 | 1003.7 |
| 20260508000052 | 45 | 219 | 1.7 | 3.5 | 0.00 | 0.81 | 0.81 | 89 | 1003.7 |
| 20260507235545 | 45 | 219 | 1.7 | 3.5 | 0.00 | 0.81 | 0.81 | 89 | 1003.6 |
| 20260507235044 | 46 | 219 | 1.7 | 3.5 | 0.00 | 0.81 | 0.81 | 89 | 1003.5 |
| 20260507234553 | 46 | 219 | 0.9 | 3.5 | 0.00 | 0.81 | 0.81 | 89 | 1003.8 |
| 20260507234046 | 46 | 219 | 0.9 | 4.3 | 0.00 | 0.81 | 0.81 | 89 | 1003.7 |
| 20260507233545 | 46 | 208 | 2.6 | 4.3 | 0.00 | 0.81 | 0.81 | 88 | 1003.6 |
| 20260507233054 | 46 | 207 | 1.7 | 3.5 | 0.00 | 0.81 | 0.81 | 87 | 1003.7 |
| 20260507232548 | 47 | 207 | 1.7 | 3.5 | 0.00 | 0.81 | 0.81 | 87 | 1003.7 |
| 20260507232044 | 47 | 207 | 1.7 | 3.5 | 0.00 | 0.81 | 0.81 | 87 | 1003.6 |
| 20260507231558 | 47 | 207 | 2.6 | 3.5 | 0.00 | 0.81 | 0.81 | 86 | 1003.5 |
| 20260507231041 | 48 | 207 | 2.6 | 4.3 | 0.00 | 0.81 | 0.81 | 86 | 1003.4 |
| 20260507230542 | 48 | 205 | 2.6 | 5.2 | 0.00 | 0.81 | 0.81 | 85 | 1003.7 |
| 20260507230054 | 48 | 207 | 1.7 | 5.2 | 0.00 | 0.81 | 0.81 | 86 | 1003.6 |
| 20260507225542 | 49 | 207 | 1.7 | 6.1 | 0.00 | 0.81 | 0.81 | 86 | 1003.6 |
| 20260507225042 | 49 | 219 | 2.6 | 8.7 | 0.00 | 0.81 | 0.81 | 86 | 1003.7 |
| 20260507224600 | 49 | 225 | 3.5 | 9.6 | 0.00 | 0.81 | 0.81 | 86 | 1003.7 |
| 20260507224042 | 49 | 204 | 4.3 | 9.6 | 0.00 | 0.81 | 0.81 | 87 | 1003.5 |
| 20260507223549 | 49 | 205 | 2.6 | 6.1 | 0.00 | 0.81 | 0.81 | 87 | 1003.7 |
| 20260507223051 | 49 | 198 | 2.6 | 5.2 | 0.00 | 0.81 | 0.81 | 87 | 1003.6 |
| 20260507222548 | 49 | 203 | 0.9 | 5.2 | 0.00 | 0.81 | 0.81 | 87 | 1003.6 |
| 20260507222043 | 49 | 266 | 1.7 | 4.3 | 0.00 | 0.81 | 0.81 | 87 | 1003.5 |
| 20260507221550 | 49 | 244 | 2.6 | 4.3 | 0.00 | 0.81 | 0.81 | 87 | 1003.4 |
| 20260507221041 | 49 | 244 | 1.7 | 4.3 | 0.00 | 0.81 | 0.81 | 87 | 1003.4 |
| 20260507220545 | 49 | 244 | 1.7 | 4.3 | 0.00 | 0.81 | 0.81 | 87 | 1003.3 |
| 20260507220049 | 49 | 232 | 1.7 | 4.3 | 0.00 | 0.81 | 0.81 | 88 | 1003.3 |
| 20260507215543 | 49 | 239 | 1.7 | 5.2 | 0.00 | 0.81 | 0.81 | 89 | 1003.5 |
| 20260507215041 | 49 | 239 | 2.6 | 5.2 | 0.00 | 0.81 | 0.81 | 89 | 1003.5 |
| 20260507214553 | 49 | 225 | 3.5 | 7.8 | 0.00 | 0.81 | 0.81 | 90 | 1003.6 |
| 20260507214041 | 48 | 248 | 4.3 | 8.7 | 0.00 | 0.81 | 0.81 | 90 | 1003.7 |
| 20260507213544 | 48 | 225 | 5.2 | 8.7 | 0.00 | 0.81 | 0.81 | 90 | 1003.8 |
| 20260507213053 | 48 | 212 | 4.3 | 8.7 | 0.00 | 0.81 | 0.81 | 91 | 1003.8 |
| 20260507212546 | 48 | 211 | 5.2 | 8.7 | 0.00 | 0.81 | 0.81 | 91 | 1003.9 |
| 20260507212045 | 48 | 213 | 4.3 | 8.7 | 0.00 | 0.81 | 0.81 | 92 | 1003.8 |
| 20260507211555 | 48 | 215 | 5.2 | 8.7 | 0.00 | 0.81 | 0.81 | 92 | 1003.9 |
| 20260507211044 | 48 | 223 | 5.2 | 8.7 | 0.00 | 0.81 | 0.81 | 93 | 1004.0 |
| 20260507210546 | 48 | 215 | 4.3 | 7.8 | 0.00 | 0.81 | 0.81 | 94 | 1003.7 |
| 20260507210115 | 48 | 218 | 5.2 | 7.8 | 0.00 | 0.81 | 0.81 | 93 | 1003.8 |
| 20260507205545 | 48 | 225 | 5.2 | 8.7 | 0.00 | 0.81 | 0.81 | 94 | 1003.8 |
| 20260507205046 | 48 | 233 | 4.3 | 8.7 | 0.00 | 0.81 | 0.81 | 95 | 1003.7 |
| 20260507204600 | 47 | 215 | 7.0 | 8.7 | 0.00 | 0.81 | 0.81 | 95 | 1003.8 |
| 20260507204044 | 47 | 221 | 6.1 | 8.7 | 0.00 | 0.81 | 0.81 | 95 | 1003.7 |
| 20260507203544 | 47 | 219 | 5.2 | 10.4 | 0.00 | 0.81 | 0.81 | 95 | 1003.8 |
| 20260507203058 | 47 | 232 | 7.0 | 10.4 | 0.00 | 0.81 | 0.81 | 95 | 1003.7 |
| 20260507202542 | 48 | 217 | 6.1 | 10.4 | 0.00 | 0.81 | 0.81 | 96 | 1003.6 |
| 20260507202043 | 47 | 228 | 7.0 | 10.4 | 0.00 | 0.81 | 0.81 | 96 | 1003.6 |
| 20260507201600 | 48 | 228 | 5.2 | 8.7 | 0.00 | 0.81 | 0.81 | 96 | 1003.5 |
| 20260507201042 | 47 | 224 | 6.1 | 7.8 | 0.00 | 0.81 | 0.81 | 96 | 1003.4 |
| 20260507200546 | 48 | 226 | 5.2 | 8.7 | 0.00 | 0.81 | 0.81 | 97 | 1003.3 |
| 20260507200105 | 47 | 219 | 5.2 | 9.6 | 0.00 | 0.81 | 0.81 | 97 | 1003.3 |
| 20260507195548 | 47 | 219 | 5.2 | 10.4 | 0.00 | 0.81 | 0.81 | 97 | 1003.3 |
| 20260507195042 | 47 | 234 | 6.1 | 10.4 | 0.00 | 0.81 | 0.81 | 97 | 1003.5 |
| 20260507194556 | 48 | 238 | 6.1 | 9.6 | 0.00 | 0.81 | 0.81 | 97 | 1003.5 |
| 20260507194041 | 48 | 234 | 6.1 | 8.7 | 0.00 | 0.81 | 0.81 | 97 | 1003.6 |
| 20260507193541 | 47 | 244 | 6.1 | 8.7 | 0.00 | 0.81 | 0.81 | 98 | 1003.6 |
| 20260507193125 | 47 | 239 | 5.2 | 8.7 | 0.00 | 0.81 | 0.81 | 98 | 1003.5 |
| 20260507192542 | 47 | 245 | 4.3 | 8.7 | 0.00 | 0.81 | 0.81 | 98 | 1003.6 |
| 20260507192047 | 47 | 253 | 6.1 | 8.7 | 0.00 | 0.81 | 0.81 | 98 | 1003.6 |
| 20260507191559 | 47 | 237 | 5.2 | 7.8 | 0.00 | 0.81 | 0.81 | 98 | 1003.7 |
| 20260507191046 | 47 | 229 | 6.1 | 8.7 | 0.00 | 0.81 | 0.81 | 98 | 1003.6 |
| 20260507190547 | 47 | 235 | 6.1 | 8.7 | 0.00 | 0.81 | 0.81 | 99 | 1003.6 |
| 20260507190054 | 46 | 223 | 6.1 | 8.7 | 0.00 | 0.81 | 0.81 | 99 | 1003.6 |
| 20260507185544 | 46 | 234 | 5.2 | 7.8 | 0.00 | 0.81 | 0.81 | 99 | 1003.6 |
| 20260507185048 | 47 | 234 | 4.3 | 7.0 | 0.00 | 0.81 | 0.81 | 99 | 1003.4 |
| 20260507184554 | 47 | 219 | 4.3 | 7.8 | 0.00 | 0.81 | 0.81 | 99 | 1003.4 |
| 20260507184043 | 47 | 238 | 4.3 | 7.8 | 0.00 | 0.81 | 0.81 | 100 | 1003.4 |
| 20260507183544 | 47 | 250 | 4.3 | 7.8 | 0.00 | 0.81 | 0.81 | 100 | 1003.3 |
| 20260507183102 | 47 | 236 | 3.5 | 7.0 | 0.00 | 0.81 | 0.81 | 100 | 1003.3 |
| 20260507182545 | 46 | 253 | 4.3 | 7.0 | 0.00 | 0.81 | 0.81 | 100 | 1003.4 |
| 20260507182045 | 47 | 238 | 4.3 | 7.0 | 0.00 | 0.81 | 0.81 | 100 | 1003.5 |
| 20260507181554 | 46 | 226 | 4.3 | 7.0 | 0.00 | 0.81 | 0.81 | 100 | 1003.5 |
| 20260507181044 | 47 | 232 | 2.6 | 7.0 | 0.00 | 0.81 | 0.81 | 100 | 1003.5 |
| 20260507180545 | 47 | 250 | 3.5 | 7.0 | 0.00 | 0.81 | 0.81 | 100 | 1003.3 |
| 20260507180056 | 47 | 248 | 3.5 | 7.0 | 0.00 | 0.81 | 0.81 | 100 | 1003.4 |
| 20260507175544 | 47 | 313 | 2.6 | 6.1 | 0.00 | 0.81 | 0.81 | 100 | 1003.4 |
| 20260507175046 | 47 | 245 | 3.5 | 7.0 | 0.00 | 0.81 | 0.81 | 100 | 1003.3 |
| 20260507174554 | 47 | 265 | 2.6 | 7.8 | 0.00 | 0.81 | 0.81 | 100 | 1003.2 |
| 20260507174046 | 47 | 270 | 4.3 | 7.8 | 0.00 | 0.81 | 0.81 | 100 | 1003.2 |
| 20260507173545 | 47 | 276 | 5.2 | 7.8 | 0.00 | 0.81 | 0.81 | 100 | 1003.2 |
| 20260507173130 | 46 | 300 | 1.7 | 7.8 | 0.00 | 0.81 | 0.81 | 100 | 1003.2 |
| 20260507172543 | 46 | 245 | 2.6 | 7.8 | 0.00 | 0.81 | 0.81 | 100 | 1003.5 |
| 20260507172044 | 47 | 238 | 2.6 | 7.8 | 0.00 | 0.81 | 0.81 | 100 | 1003.5 |
| 20260507171556 | 48 | 298 | 3.5 | 7.8 | 0.00 | 0.81 | 0.81 | 100 | 1003.4 |
| 20260507171045 | 48 | 301 | 3.5 | 7.0 | 0.00 | 0.81 | 0.81 | 100 | 1003.5 |
| 20260507170545 | 48 | 279 | 3.5 | 7.8 | 0.00 | 0.81 | 0.81 | 100 | 1003.6 |
| 20260507170053 | 48 | 258 | 3.5 | 8.7 | 0.00 | 0.81 | 0.81 | 100 | 1003.5 |
| 20260507165544 | 47 | 287 | 3.5 | 8.7 | 0.00 | 0.81 | 0.81 | 100 | 1003.6 |
| 20260507165044 | 47 | 292 | 4.3 | 7.0 | 0.00 | 0.81 | 0.81 | 100 | 1003.7 |
| 20260507164604 | 47 | 311 | 2.6 | 7.8 | 0.00 | 0.81 | 0.81 | 100 | 1003.6 |
| 20260507164045 | 46 | 325 | 2.6 | 7.8 | 0.00 | 0.81 | 0.81 | 100 | 1003.7 |
| 20260507163545 | 46 | 292 | 5.2 | 8.7 | 0.01 | 0.81 | 0.81 | 100 | 1003.9 |
| 20260507163054 | 46 | 274 | 5.2 | 8.7 | 0.01 | 0.81 | 0.81 | 100 | 1004.0 |
| 20260507162544 | 46 | 304 | 4.3 | 8.7 | 0.02 | 0.81 | 0.81 | 100 | 1003.9 |
| 20260507162045 | 46 | 305 | 6.1 | 8.7 | 0.02 | 0.81 | 0.81 | 100 | 1004.0 |
| 20260507161607 | 46 | 280 | 6.1 | 8.7 | 0.02 | 0.81 | 0.81 | 100 | 1003.9 |
| 20260507161045 | 46 | 342 | 3.5 | 7.8 | 0.03 | 0.81 | 0.81 | 100 | 1003.1 |
| 20260507160545 | 46 | 297 | 3.5 | 7.0 | 0.02 | 0.81 | 0.81 | 100 | 1003.5 |
| 20260507160103 | 45 | 296 | 2.6 | 7.0 | 0.03 | 0.81 | 0.81 | 100 | 1004.1 |
| 20260507155544 | 45 | 290 | 0.9 | 5.2 | 0.05 | 0.81 | 0.81 | 100 | 1004.2 |
| 20260507155045 | 45 | 271 | 1.7 | 7.0 | 0.07 | 0.81 | 0.81 | 100 | 1004.5 |
| 20260507154550 | 44 | 263 | 1.7 | 8.7 | 0.07 | 0.81 | 0.81 | 100 | 1004.5 |
| 20260507154042 | 44 | 254 | 4.3 | 8.7 | 0.08 | 0.81 | 0.81 | 100 | 1004.5 |
| 20260507153542 | 45 | 231 | 6.1 | 7.8 | 0.09 | 0.80 | 0.80 | 100 | 1004.7 |
| 20260507153055 | 45 | 231 | 3.5 | 7.0 | 0.10 | 0.80 | 0.80 | 100 | 1004.5 |
| 20260507152548 | 45 | 225 | 5.2 | 7.0 | 0.10 | 0.79 | 0.79 | 100 | 1004.2 |
| 20260507152045 | 45 | 225 | 2.6 | 5.2 | 0.10 | 0.79 | 0.79 | 100 | 1004.0 |
| 20260507151549 | 45 | 240 | 2.6 | 4.3 | 0.10 | 0.79 | 0.79 | 100 | 1003.6 |
| 20260507151042 | 45 | 222 | 0.9 | 2.6 | 0.09 | 0.78 | 0.78 | 100 | 1003.5 |
| 20260507150550 | 45 | 221 | 0.0 | 3.5 | 0.10 | 0.78 | 0.78 | 100 | 1003.5 |
| 20260507150053 | 45 | 221 | 0.9 | 4.3 | 0.08 | 0.77 | 0.77 | 100 | 1003.7 |
| 20260507145542 | 45 | 221 | 2.6 | 5.2 | 0.06 | 0.74 | 0.74 | 100 | 1004.0 |
| 20260507145044 | 45 | 223 | 2.6 | 5.2 | 0.05 | 0.74 | 0.74 | 100 | 1004.3 |
| 20260507144601 | 45 | 203 | 3.5 | 5.2 | 0.04 | 0.73 | 0.73 | 100 | 1004.5 |
| 20260507144042 | 45 | 199 | 2.6 | 6.1 | 0.03 | 0.71 | 0.71 | 100 | 1004.5 |
| 20260507143541 | 45 | 221 | 2.6 | 7.0 | 0.03 | 0.70 | 0.70 | 100 | 1004.2 |
| 20260507143051 | 46 | 221 | 3.5 | 7.0 | 0.04 | 0.70 | 0.70 | 100 | 1004.2 |